AXY75 LIRF-EFHK

Flight info

Callsign AXY75
Flight time 3h 3m
Altitude 40000
Route SOSIV5AXSOVAN1E/25 SOVAN DCT AMTEL DCT OBEDI/N0469F410 DCT RASAN DCT PENOR DCT ALAMI DCT OKEVU DCT EVADI Y370 DIVAM
Aircraft A343/H-SDE2E3FGHIJ4J5M1RWXY/LB1D1

Departure

Time 2026-05-06 16:57
Airport Rome–Fiumicino Leonardo da Vinci International Airport (LIRF)

Arrival

Time 2026-05-06 20:00
Airport Helsinki Vantaa Airport (EFHK)
Time Latitude Longitude Altitude Speed Heading
2026-05-06 15:34 41.80079 12.26216 18 ft 0 kts 205°
2026-05-06 16:37 41.80073 12.26212 18 ft 3 kts 205°
2026-05-06 16:37 41.80057 12.26202 18 ft 3 kts 205°
2026-05-06 16:38 41.80051 12.26199 18 ft 0 kts 205°
2026-05-06 16:38 41.80080 12.26217 18 ft 0 kts 205°
2026-05-06 16:41 41.80094 12.26226 19 ft 4 kts 205°
2026-05-06 16:41 41.80114 12.26238 20 ft 4 kts 219°
2026-05-06 16:42 41.80125 12.26263 21 ft 4 kts 282°
2026-05-06 16:42 41.80116 12.26294 21 ft 4 kts 295°
2026-05-06 16:42 41.80109 12.26312 21 ft 2 kts 295°
2026-05-06 16:46 41.80107 12.26316 21 ft 0 kts 284°
2026-05-06 16:47 41.80107 12.26318 21 ft 1 kts 284°
2026-05-06 16:47 41.80106 12.26320 21 ft 0 kts 284°
2026-05-06 16:47 41.80106 12.26319 21 ft 0 kts 284°
2026-05-06 16:47 41.80106 12.26320 21 ft 0 kts 284°
2026-05-06 16:48 41.80106 12.26321 18 ft 0 kts 284°
2026-05-06 16:48 41.80106 12.26323 18 ft 0 kts 284°
2026-05-06 16:48 41.80105 12.26326 18 ft 0 kts 284°
2026-05-06 16:49 41.80105 12.26329 18 ft 1 kts 284°
2026-05-06 16:50 41.80115 12.26285 19 ft 2 kts 291°
2026-05-06 16:50 41.80118 12.26276 18 ft 1 kts 292°
2026-05-06 16:50 41.80122 12.26264 18 ft 3 kts 294°
2026-05-06 16:50 41.80130 12.26240 18 ft 5 kts 294°
2026-05-06 16:51 41.80148 12.26187 18 ft 5 kts 295°
2026-05-06 16:51 41.80166 12.26136 18 ft 8 kts 295°
2026-05-06 16:51 41.80194 12.26069 18 ft 9 kts 310°
2026-05-06 16:51 41.80249 12.26060 18 ft 9 kts 10°
2026-05-06 16:52 41.80316 12.26097 18 ft 12 kts 26°
2026-05-06 16:52 41.80397 12.26149 20 ft 14 kts 23°
2026-05-06 16:52 41.80482 12.26178 20 ft 12 kts 14°
2026-05-06 16:52 41.80536 12.26267 22 ft 14 kts 66°
2026-05-06 16:53 41.80576 12.26398 22 ft 15 kts 70°
2026-05-06 16:53 41.80603 12.26499 20 ft 12 kts 71°
2026-05-06 16:53 41.80633 12.26615 20 ft 14 kts 70°
2026-05-06 16:53 41.80669 12.26748 19 ft 16 kts 70°
2026-05-06 16:54 41.80706 12.26888 18 ft 16 kts 70°
2026-05-06 16:54 41.80743 12.27023 18 ft 14 kts 70°
2026-05-06 16:54 41.80782 12.27132 17 ft 10 kts 44°
2026-05-06 16:54 41.80830 12.27132 18 ft 8 kts 341°
2026-05-06 16:55 41.80888 12.27103 17 ft 9 kts 339°
2026-05-06 16:55 41.80954 12.27067 18 ft 12 kts 332°
2026-05-06 16:55 41.80975 12.26995 17 ft 3 kts 255°
2026-05-06 16:55 41.80971 12.26978 17 ft 0 kts 252°
2026-05-06 16:56 41.80968 12.26967 17 ft 1 kts 252°
2026-05-06 16:56 41.80962 12.26943 17 ft 10 kts 252°
2026-05-06 16:56 41.80883 12.26629 19 ft 71 kts 250°
2026-05-06 16:56 41.80622 12.25709 21 ft 137 kts 250°
2026-05-06 16:57 41.80253 12.24347 388 ft 163 kts 244°
2026-05-06 16:57 41.79879 12.22872 1133 ft 172 kts 248°
2026-05-06 16:57 41.79484 12.21320 1925 ft 179 kts 245°
2026-05-06 16:57 41.79162 12.19667 2732 ft 192 kts 263°
2026-05-06 16:58 41.79634 12.17931 3465 ft 214 kts 303°
2026-05-06 16:58 41.80661 12.16415 4064 ft 224 kts 310°
2026-05-06 16:58 41.81737 12.14855 5134 ft 226 kts 307°
2026-05-06 16:58 41.82719 12.13270 6467 ft 217 kts 304°
2026-05-06 16:59 41.83663 12.11675 7550 ft 220 kts 304°
2026-05-06 16:59 41.84824 12.10276 8511 ft 232 kts 329°
2026-05-06 16:59 41.86412 12.09504 9088 ft 263 kts 341°
2026-05-06 16:59 41.88267 12.08853 9743 ft 285 kts 343°
2026-05-06 17:00 41.90234 12.08177 10469 ft 301 kts 342°
2026-05-06 17:00 41.92333 12.07396 10904 ft 325 kts 342°
2026-05-06 17:00 41.94566 12.06558 11550 ft 340 kts 342°
2026-05-06 17:00 41.96927 12.05990 12363 ft 350 kts 352°
2026-05-06 17:01 41.99378 12.05719 13256 ft 357 kts 353°
2026-05-06 17:01 42.01873 12.05488 14096 ft 362 kts 354°
2026-05-06 17:01 42.04410 12.05252 14926 ft 368 kts 353°
2026-05-06 17:01 42.06983 12.05008 15737 ft 373 kts 353°
2026-05-06 17:02 42.09587 12.04761 16540 ft 379 kts 353°
2026-05-06 17:02 42.12243 12.04506 17323 ft 385 kts 353°
2026-05-06 17:02 42.14938 12.04242 18125 ft 391 kts 353°
2026-05-06 17:02 42.17681 12.03955 18734 ft 400 kts 351°
2026-05-06 17:03 42.20448 12.03440 19451 ft 403 kts 347°
2026-05-06 17:03 42.23221 12.02825 20243 ft 405 kts 346°
2026-05-06 17:03 42.26010 12.02193 21019 ft 408 kts 346°
2026-05-06 17:03 42.28825 12.01555 21765 ft 411 kts 345°
2026-05-06 17:04 42.31651 12.00916 22480 ft 414 kts 345°
2026-05-06 17:04 42.34507 12.00270 23208 ft 417 kts 345°
2026-05-06 17:04 42.37378 11.99622 23840 ft 421 kts 345°
2026-05-06 17:04 42.40286 11.98968 24395 ft 425 kts 344°
2026-05-06 17:05 42.42216 11.98533 24789 ft 426 kts 344°
2026-05-06 17:05 42.45159 11.97868 25293 ft 431 kts 344°
2026-05-06 17:05 42.48131 11.97195 25794 ft 435 kts 344°
2026-05-06 17:05 42.51131 11.96516 26276 ft 439 kts 344°
2026-05-06 17:06 42.54156 11.95831 26763 ft 443 kts 344°
2026-05-06 17:06 42.58206 11.94914 27391 ft 448 kts 343°
2026-05-06 17:06 42.60290 11.94441 27706 ft 450 kts 343°
2026-05-06 17:06 42.63399 11.93735 28108 ft 456 kts 344°
2026-05-06 17:07 42.66542 11.93021 28534 ft 460 kts 344°
2026-05-06 17:07 42.69716 11.92300 29007 ft 463 kts 344°
2026-05-06 17:07 42.72907 11.91574 29450 ft 467 kts 344°
2026-05-06 17:07 42.76121 11.90842 29855 ft 470 kts 344°
2026-05-06 17:08 42.79364 11.90102 30238 ft 474 kts 343°
2026-05-06 17:08 42.82576 11.89156 30580 ft 471 kts 336°
2026-05-06 17:08 42.85608 11.87565 30929 ft 464 kts 326°
2026-05-06 17:08 42.88501 11.85620 31319 ft 464 kts 324°
2026-05-06 17:09 42.91319 11.83594 31705 ft 464 kts 323°
2026-05-06 17:09 42.94147 11.81501 32267 ft 460 kts 322°
2026-05-06 17:09 42.96947 11.79413 32797 ft 458 kts 322°
2026-05-06 17:09 42.99743 11.77329 33308 ft 457 kts 321°
2026-05-06 17:10 43.02532 11.75259 33821 ft 455 kts 321°
2026-05-06 17:10 43.05313 11.73206 34290 ft 454 kts 323°
2026-05-06 17:10 43.08081 11.71163 34749 ft 451 kts 322°
2026-05-06 17:10 43.10840 11.69127 35177 ft 449 kts 323°
2026-05-06 17:11 43.13584 11.67104 35610 ft 448 kts 323°
2026-05-06 17:11 43.16377 11.65147 35839 ft 455 kts 328°
2026-05-06 17:11 43.19388 11.63658 36153 ft 465 kts 338°
2026-05-06 17:11 43.22598 11.62845 36592 ft 473 kts 348°
2026-05-06 17:12 43.25906 11.62829 37051 ft 480 kts 360°
2026-05-06 17:12 43.29208 11.63619 37462 ft 484 kts
2026-05-06 17:12 43.32479 11.64754 37826 ft 485 kts 10°
2026-05-06 17:12 43.35727 11.66014 38193 ft 485 kts 11°
2026-05-06 17:13 43.38954 11.67321 38578 ft 483 kts 11°
2026-05-06 17:13 43.42171 11.68635 38938 ft 480 kts 11°
2026-05-06 17:13 43.45363 11.69929 39314 ft 477 kts 11°
2026-05-06 17:13 43.48543 11.71204 39576 ft 476 kts 11°
2026-05-06 17:14 43.51727 11.72468 39792 ft 476 kts 11°
2026-05-06 17:14 43.54918 11.73725 40020 ft 477 kts 11°
2026-05-06 17:14 43.58107 11.74978 40251 ft 476 kts 11°
2026-05-06 17:14 43.61294 11.76231 40468 ft 476 kts 11°
2026-05-06 17:15 43.64484 11.77487 40657 ft 477 kts 11°
2026-05-06 17:15 43.67636 11.78730 40838 ft 478 kts 11°
2026-05-06 17:15 43.70846 11.79996 40932 ft 482 kts 11°
2026-05-06 17:16 43.77363 11.82570 40925 ft 492 kts 12°
2026-05-06 17:16 43.83997 11.85200 40932 ft 495 kts 12°
2026-05-06 17:17 43.90491 11.87799 40912 ft 479 kts 11°
2026-05-06 17:17 43.96883 11.90350 40892 ft 477 kts 12°
2026-05-06 17:18 44.03252 11.92891 40894 ft 476 kts 12°
2026-05-06 17:18 44.09614 11.95434 40883 ft 475 kts 12°
2026-05-06 17:19 44.15963 11.97988 40886 ft 475 kts 12°
2026-05-06 17:19 44.22310 12.00541 40884 ft 475 kts 12°
2026-05-06 17:20 44.28666 12.03098 40886 ft 475 kts 12°
2026-05-06 17:20 44.35013 12.05660 40889 ft 474 kts 12°
2026-05-06 17:21 44.41324 12.08217 40885 ft 471 kts 12°
2026-05-06 17:21 44.47604 12.10767 40881 ft 470 kts 12°
2026-05-06 17:22 44.53881 12.13320 40877 ft 470 kts 12°
2026-05-06 17:22 44.60115 12.15860 40879 ft 470 kts 12°
2026-05-06 17:23 44.66389 12.18423 40878 ft 470 kts 12°
2026-05-06 17:23 44.72666 12.20994 40877 ft 470 kts 12°
2026-05-06 17:24 44.78941 12.23569 40879 ft 470 kts 12°
2026-05-06 17:24 44.85223 12.26152 40876 ft 470 kts 12°
2026-05-06 17:25 44.91508 12.28744 40883 ft 470 kts 12°
2026-05-06 17:25 44.97787 12.31338 40870 ft 470 kts 12°
2026-05-06 17:26 45.04068 12.33940 40872 ft 470 kts 12°
2026-05-06 17:26 45.10348 12.36547 40871 ft 470 kts 12°
2026-05-06 17:27 45.16627 12.39160 40871 ft 470 kts 13°
2026-05-06 17:27 45.22904 12.41776 40885 ft 470 kts 13°
2026-05-06 17:28 45.29202 12.44405 40885 ft 473 kts 13°
2026-05-06 17:28 45.35516 12.47052 40880 ft 473 kts 13°
2026-05-06 17:29 45.41832 12.49707 40884 ft 473 kts 13°
2026-05-06 17:29 45.48107 12.52350 40884 ft 473 kts 13°
2026-05-06 17:30 45.54417 12.55012 40882 ft 473 kts 13°
2026-05-06 17:30 45.60721 12.57678 40882 ft 473 kts 13°
2026-05-06 17:31 45.67029 12.60352 40887 ft 473 kts 13°
2026-05-06 17:31 45.73331 12.63029 40887 ft 472 kts 13°
2026-05-06 17:32 45.79628 12.65711 40894 ft 472 kts 13°
2026-05-06 17:32 45.85925 12.68399 40900 ft 472 kts 13°
2026-05-06 17:33 45.92218 12.71092 40906 ft 472 kts 13°
2026-05-06 17:33 45.98510 12.73791 40910 ft 472 kts 13°
2026-05-06 17:34 46.04799 12.76495 40909 ft 472 kts 13°
2026-05-06 17:34 46.11093 12.79208 40888 ft 472 kts 14°
2026-05-06 17:35 46.17381 12.81924 40891 ft 472 kts 14°
2026-05-06 17:35 46.23670 12.84648 40888 ft 472 kts 14°
2026-05-06 17:36 46.33098 12.88744 40892 ft 471 kts 14°
2026-05-06 17:36 46.39382 12.91482 40878 ft 471 kts 14°
2026-05-06 17:37 46.45620 12.94209 40895 ft 472 kts 14°
2026-05-06 17:37 46.51907 12.96956 40887 ft 472 kts 14°
2026-05-06 17:38 46.58198 12.99704 40880 ft 472 kts 14°
2026-05-06 17:38 46.64483 13.02474 40878 ft 472 kts 14°
2026-05-06 17:39 46.70775 13.05253 40878 ft 473 kts 14°
2026-05-06 17:39 46.77068 13.08037 40871 ft 473 kts 14°
2026-05-06 17:40 46.83365 13.10826 40869 ft 473 kts 14°
2026-05-06 17:40 46.89664 13.13622 40851 ft 473 kts 14°
2026-05-06 17:41 46.95971 13.16431 40833 ft 473 kts 14°
2026-05-06 17:41 47.02276 13.19248 40832 ft 474 kts 14°
2026-05-06 17:42 47.08578 13.22067 40819 ft 473 kts 14°
2026-05-06 17:42 47.14873 13.24889 40809 ft 473 kts 14°
2026-05-06 17:43 47.21172 13.27724 40794 ft 473 kts 14°
2026-05-06 17:43 47.27425 13.30539 40800 ft 472 kts 14°
2026-05-06 17:44 47.33694 13.33374 40781 ft 471 kts 14°
2026-05-06 17:44 47.39960 13.36173 40768 ft 470 kts 14°
2026-05-06 17:45 47.46226 13.38948 40759 ft 470 kts 14°
2026-05-06 17:45 47.52485 13.41732 40747 ft 469 kts 14°
2026-05-06 17:46 47.58736 13.44524 40747 ft 469 kts 14°
2026-05-06 17:46 47.64988 13.47328 40751 ft 469 kts 14°
2026-05-06 17:47 47.71245 13.50139 40721 ft 471 kts 14°
2026-05-06 17:47 47.77520 13.52965 40715 ft 472 kts 14°
2026-05-06 17:48 47.83804 13.55802 40719 ft 472 kts 14°
2026-05-06 17:48 47.90098 13.58652 40705 ft 474 kts 14°
2026-05-06 17:49 47.96403 13.61517 40696 ft 474 kts 14°
2026-05-06 17:49 48.02718 13.64393 40694 ft 475 kts 14°
2026-05-06 17:50 48.09036 13.67277 40686 ft 475 kts 14°
2026-05-06 17:50 48.15356 13.70169 40682 ft 475 kts 14°
2026-05-06 17:51 48.21629 13.73046 40686 ft 475 kts 14°
2026-05-06 17:51 48.27946 13.75951 40689 ft 475 kts 14°
2026-05-06 17:52 48.34268 13.78866 40697 ft 476 kts 14°
2026-05-06 17:52 48.40599 13.81793 40690 ft 476 kts 14°
2026-05-06 17:53 48.46925 13.84726 40695 ft 476 kts 14°
2026-05-06 17:53 48.53259 13.87669 40684 ft 475 kts 14°
2026-05-06 17:54 48.59577 13.90612 40687 ft 475 kts 14°
2026-05-06 17:54 48.65892 13.93563 40687 ft 475 kts 14°
2026-05-06 17:55 48.71138 13.96019 40701 ft 475 kts 14°
2026-05-06 17:55 48.77445 13.98979 40705 ft 474 kts 14°
2026-05-06 17:56 48.83747 14.01945 40701 ft 474 kts 14°
2026-05-06 17:56 48.90048 14.04918 40712 ft 474 kts 14°
2026-05-06 17:57 48.96341 14.07895 40705 ft 473 kts 14°
2026-05-06 17:57 49.02621 14.10875 40708 ft 473 kts 14°
2026-05-06 17:58 49.08902 14.13862 40706 ft 473 kts 15°
2026-05-06 17:58 49.15183 14.16857 40708 ft 473 kts 15°
2026-05-06 17:59 49.21460 14.19859 40708 ft 473 kts 15°
2026-05-06 17:59 49.27736 14.22867 40709 ft 473 kts 15°
2026-05-06 18:00 49.34011 14.25884 40716 ft 473 kts 15°
2026-05-06 18:00 49.40325 14.28926 40719 ft 480 kts 15°
2026-05-06 18:01 49.46729 14.32020 40720 ft 483 kts 15°
2026-05-06 18:01 49.53144 14.35130 40727 ft 483 kts 15°
2026-05-06 18:02 49.59557 14.38248 40727 ft 483 kts 15°
2026-05-06 18:02 49.65966 14.41372 40728 ft 483 kts 15°
2026-05-06 18:03 49.72329 14.44481 40733 ft 483 kts 15°
2026-05-06 18:03 49.78747 14.47626 40741 ft 484 kts 15°
2026-05-06 18:04 49.85168 14.50781 40738 ft 485 kts 15°
2026-05-06 18:04 49.91597 14.53949 40741 ft 485 kts 15°
2026-05-06 18:05 49.98031 14.57129 40750 ft 485 kts 15°
2026-05-06 18:05 50.04466 14.60317 40748 ft 486 kts 15°
2026-05-06 18:06 50.10914 14.63522 40752 ft 487 kts 15°
2026-05-06 18:06 50.17363 14.66736 40749 ft 487 kts 15°
2026-05-06 18:07 50.23815 14.69961 40748 ft 487 kts 15°
2026-05-06 18:07 50.30260 14.73191 40752 ft 487 kts 15°
2026-05-06 18:08 50.36708 14.76432 40753 ft 487 kts 16°
2026-05-06 18:08 50.43153 14.79681 40755 ft 487 kts 15°
2026-05-06 18:09 50.49601 14.82940 40751 ft 487 kts 15°
2026-05-06 18:09 50.56059 14.86214 40750 ft 487 kts 16°
2026-05-06 18:10 50.62506 14.89492 40769 ft 487 kts 15°
2026-05-06 18:10 50.68963 14.92784 40766 ft 488 kts 15°
2026-05-06 18:11 50.75420 14.96086 40756 ft 488 kts 15°
2026-05-06 18:11 50.81832 14.99375 40770 ft 488 kts 15°
2026-05-06 18:12 50.88286 15.02695 40765 ft 488 kts 15°
2026-05-06 18:12 50.94751 15.06030 40772 ft 489 kts 15°
2026-05-06 18:13 51.01215 15.09375 40769 ft 489 kts 15°
2026-05-06 18:13 51.07740 15.12330 40778 ft 487 kts 11°
2026-05-06 18:14 51.14329 15.14817 40775 ft 486 kts 10°
2026-05-06 18:14 51.20909 15.17336 40776 ft 487 kts 11°
2026-05-06 18:15 51.27479 15.19951 40777 ft 487 kts 11°
2026-05-06 18:15 51.34043 15.22612 40780 ft 486 kts 11°
2026-05-06 18:16 51.40596 15.25281 40785 ft 485 kts 11°
2026-05-06 18:16 51.47139 15.27949 40785 ft 485 kts 11°
2026-05-06 18:17 51.53689 15.30625 40789 ft 485 kts 11°
2026-05-06 18:17 51.60228 15.33304 40789 ft 485 kts 11°
2026-05-06 18:18 51.66762 15.35990 40790 ft 484 kts 11°
2026-05-06 18:18 51.73293 15.38683 40796 ft 484 kts 11°
2026-05-06 18:19 51.79778 15.41366 40799 ft 484 kts 11°
2026-05-06 18:19 51.86294 15.44069 40799 ft 483 kts 11°
2026-05-06 18:20 51.92811 15.46780 40798 ft 483 kts 12°
2026-05-06 18:20 51.99327 15.49500 40809 ft 483 kts 12°
2026-05-06 18:21 52.05831 15.52223 40822 ft 483 kts 12°
2026-05-06 18:21 52.12335 15.54954 40822 ft 482 kts 12°
2026-05-06 18:22 52.18836 15.57691 40821 ft 482 kts 12°
2026-05-06 18:22 52.25331 15.60435 40821 ft 482 kts 12°
2026-05-06 18:23 52.31827 15.63187 40824 ft 482 kts 12°
2026-05-06 18:23 52.38323 15.65947 40821 ft 482 kts 12°
2026-05-06 18:24 52.44814 15.68714 40823 ft 482 kts 12°
2026-05-06 18:24 52.51303 15.71489 40822 ft 482 kts 12°
2026-05-06 18:25 52.57787 15.74269 40830 ft 482 kts 12°
2026-05-06 18:25 52.64237 15.77044 40829 ft 482 kts 12°
2026-05-06 18:26 52.70727 15.79845 40829 ft 482 kts 12°
2026-05-06 18:26 52.77226 15.82658 40826 ft 483 kts 12°
2026-05-06 18:27 52.83727 15.85480 40829 ft 483 kts 12°
2026-05-06 18:27 52.90230 15.88313 40832 ft 483 kts 12°
2026-05-06 18:28 52.96730 15.91152 40833 ft 483 kts 12°
2026-05-06 18:28 53.03239 15.94005 40834 ft 484 kts 12°
2026-05-06 18:29 53.09758 15.96868 40838 ft 484 kts 12°
2026-05-06 18:29 53.16270 15.99740 40838 ft 484 kts 12°
2026-05-06 18:30 53.22780 16.02622 40841 ft 485 kts 12°
2026-05-06 18:30 53.29254 16.05496 40846 ft 485 kts 12°
2026-05-06 18:31 53.35775 16.08400 40848 ft 485 kts 12°
2026-05-06 18:31 53.42294 16.11314 40856 ft 485 kts 12°
2026-05-06 18:32 53.48814 16.14235 40854 ft 485 kts 12°
2026-05-06 18:32 53.55326 16.17163 40856 ft 484 kts 12°
2026-05-06 18:33 53.61837 16.20098 40856 ft 485 kts 12°
2026-05-06 18:33 53.68350 16.23044 40864 ft 484 kts 12°
2026-05-06 18:34 53.74847 16.25991 40867 ft 483 kts 12°
2026-05-06 18:34 53.81339 16.28944 40867 ft 483 kts 12°
2026-05-06 18:35 53.87826 16.31905 40870 ft 483 kts 12°
2026-05-06 18:35 53.94315 16.34877 40875 ft 483 kts 12°
2026-05-06 18:36 54.00756 16.37838 40872 ft 482 kts 12°
2026-05-06 18:36 54.07233 16.40824 40873 ft 482 kts 12°
2026-05-06 18:37 54.12661 16.43335 40873 ft 482 kts 12°
2026-05-06 18:37 54.20191 16.46830 40882 ft 482 kts 12°
2026-05-06 18:38 54.26661 16.49842 40884 ft 482 kts 12°
2026-05-06 18:38 54.33139 16.52867 40884 ft 482 kts 12°
2026-05-06 18:39 54.39660 16.55923 40896 ft 482 kts 12°
2026-05-06 18:40 54.49365 16.60490 40889 ft 482 kts 12°
2026-05-06 18:40 54.55795 16.63529 40903 ft 482 kts 12°
2026-05-06 18:41 54.62309 16.66617 40897 ft 482 kts 12°
2026-05-06 18:41 54.68732 16.69672 40904 ft 482 kts 12°
2026-05-06 18:42 54.75191 16.72755 40907 ft 482 kts 12°
2026-05-06 18:42 54.81627 16.75836 40903 ft 482 kts 12°
2026-05-06 18:43 54.88091 16.78941 40911 ft 482 kts 12°
2026-05-06 18:43 54.93507 16.81551 40910 ft 482 kts 12°
2026-05-06 18:44 54.99924 16.84652 40919 ft 482 kts 12°
2026-05-06 18:44 55.06423 16.87804 40912 ft 482 kts 12°
2026-05-06 18:45 55.12884 16.90948 40927 ft 482 kts 12°
2026-05-06 18:45 55.19302 16.94081 40919 ft 482 kts 12°
2026-05-06 18:46 55.25760 16.97245 40920 ft 482 kts 12°
2026-05-06 18:46 55.32224 17.00422 40919 ft 482 kts 12°
2026-05-06 18:47 55.38684 17.03608 40943 ft 482 kts 12°
2026-05-06 18:47 55.45148 17.06807 40933 ft 482 kts 12°
2026-05-06 18:48 55.51598 17.10010 40936 ft 482 kts 13°
2026-05-06 18:48 55.58053 17.13227 40934 ft 482 kts 13°
2026-05-06 18:49 55.64422 17.16985 40954 ft 486 kts 24°
2026-05-06 18:49 55.70417 17.22531 40938 ft 486 kts 26°
2026-05-06 18:50 55.76320 17.28397 40943 ft 486 kts 27°
2026-05-06 18:50 55.82210 17.34330 40944 ft 486 kts 27°
2026-05-06 18:51 55.88100 17.40253 40956 ft 486 kts 27°
2026-05-06 18:51 55.93996 17.46178 40944 ft 486 kts 27°
2026-05-06 18:52 55.99889 17.52114 40940 ft 486 kts 27°
2026-05-06 18:52 56.05781 17.58070 40947 ft 486 kts 27°
2026-05-06 18:53 56.11662 17.64035 40968 ft 495 kts 27°
2026-05-06 18:53 56.17722 17.70203 40938 ft 506 kts 27°
2026-05-06 18:54 56.23909 17.76527 40942 ft 517 kts 27°
2026-05-06 18:54 56.30159 17.82945 40943 ft 516 kts 27°
2026-05-06 18:55 56.36392 17.89371 40963 ft 515 kts 28°
2026-05-06 18:55 56.42612 17.95804 40953 ft 516 kts 28°
2026-05-06 18:56 56.48839 18.02268 40953 ft 516 kts 28°
2026-05-06 18:56 56.55060 18.08751 40955 ft 516 kts 28°
2026-05-06 18:57 56.61283 18.15261 40966 ft 516 kts 28°
2026-05-06 18:57 56.67499 18.21789 40952 ft 516 kts 28°
2026-05-06 18:58 56.73722 18.28349 40957 ft 516 kts 28°
2026-05-06 18:58 56.79932 18.34921 40960 ft 517 kts 28°
2026-05-06 18:59 56.86152 18.41529 40966 ft 517 kts 28°
2026-05-06 18:59 56.92362 18.48152 40963 ft 517 kts 28°
2026-05-06 19:00 56.98570 18.54798 40951 ft 517 kts 28°
2026-05-06 19:00 57.04778 18.61471 40971 ft 517 kts 28°
2026-05-06 19:01 57.10978 18.68161 40982 ft 517 kts 28°
2026-05-06 19:01 57.17179 18.74880 40974 ft 517 kts 28°
2026-05-06 19:02 57.23333 18.81573 40977 ft 517 kts 28°
2026-05-06 19:02 57.29523 18.88332 40980 ft 517 kts 28°
2026-05-06 19:03 57.35721 18.95125 40977 ft 517 kts 28°
2026-05-06 19:03 57.41909 19.01935 40977 ft 517 kts 28°
2026-05-06 19:04 57.48091 19.08767 40981 ft 517 kts 28°
2026-05-06 19:04 57.54274 19.15628 40979 ft 517 kts 28°
2026-05-06 19:05 57.60452 19.22510 40985 ft 517 kts 28°
2026-05-06 19:05 57.66625 19.29416 40985 ft 518 kts 29°
2026-05-06 19:06 57.72803 19.36352 40989 ft 518 kts 29°
2026-05-06 19:06 57.78971 19.43306 40993 ft 518 kts 29°
2026-05-06 19:07 57.85140 19.50287 40995 ft 518 kts 29°
2026-05-06 19:07 57.91311 19.57299 40995 ft 518 kts 29°
2026-05-06 19:08 57.97477 19.64333 40993 ft 518 kts 29°
2026-05-06 19:08 58.03600 19.71346 40996 ft 518 kts 29°
2026-05-06 19:09 58.09764 19.78436 41000 ft 518 kts 29°
2026-05-06 19:09 58.15930 19.85559 40999 ft 519 kts 29°
2026-05-06 19:10 58.22082 19.92694 41002 ft 519 kts 29°
2026-05-06 19:10 58.28234 19.99859 41004 ft 519 kts 29°
2026-05-06 19:11 58.34389 20.07057 41006 ft 519 kts 29°
2026-05-06 19:11 58.40540 20.14280 41006 ft 519 kts 29°
2026-05-06 19:12 58.46688 20.21529 41005 ft 520 kts 29°
2026-05-06 19:12 58.52837 20.28811 41009 ft 520 kts 30°
2026-05-06 19:13 58.58979 20.36115 41018 ft 520 kts 29°
2026-05-06 19:13 58.65130 20.43459 41015 ft 521 kts 30°
2026-05-06 19:14 58.71279 20.50833 41016 ft 521 kts 30°
2026-05-06 19:14 58.77428 20.58237 41006 ft 521 kts 30°
2026-05-06 19:15 58.83574 20.65669 40988 ft 521 kts 30°
2026-05-06 19:15 58.89708 20.73119 41020 ft 521 kts 30°
2026-05-06 19:16 58.95843 20.80601 41024 ft 521 kts 30°
2026-05-06 19:16 59.01941 20.88212 41018 ft 522 kts 35°
2026-05-06 19:16 59.04660 20.92897 41021 ft 525 kts 46°
2026-05-06 19:17 59.06887 20.98446 41016 ft 514 kts 54°
2026-05-06 19:17 59.08845 21.04160 40968 ft 502 kts 57°
2026-05-06 19:17 59.10681 21.09871 40754 ft 494 kts 58°
2026-05-06 19:17 59.12449 21.15560 40543 ft 489 kts 59°
2026-05-06 19:18 59.14187 21.21224 40335 ft 487 kts 59°
2026-05-06 19:18 59.15927 21.26905 40129 ft 489 kts 59°
2026-05-06 19:18 59.17677 21.32598 39915 ft 490 kts 58°
2026-05-06 19:18 59.19433 21.38292 39728 ft 490 kts 58°
2026-05-06 19:19 59.21195 21.43994 39509 ft 490 kts 58°
2026-05-06 19:19 59.22956 21.49695 39297 ft 491 kts 58°
2026-05-06 19:19 59.24719 21.55401 39114 ft 491 kts 58°
2026-05-06 19:19 59.26484 21.61122 38933 ft 491 kts 58°
2026-05-06 19:20 59.28243 21.66856 38736 ft 492 kts 58°
2026-05-06 19:20 59.29999 21.72603 38458 ft 493 kts 59°
2026-05-06 19:20 59.31727 21.78271 37937 ft 490 kts 59°
2026-05-06 19:20 59.33461 21.83975 37519 ft 485 kts 59°
2026-05-06 19:21 59.35177 21.89635 37109 ft 481 kts 60°
2026-05-06 19:21 59.36878 21.95251 36702 ft 477 kts 60°
2026-05-06 19:21 59.38565 22.00823 36283 ft 474 kts 60°
2026-05-06 19:21 59.40238 22.06361 35875 ft 470 kts 60°
2026-05-06 19:22 59.41901 22.11876 35415 ft 469 kts 61°
2026-05-06 19:22 59.43557 22.17384 34942 ft 468 kts 61°
2026-05-06 19:22 59.45214 22.22916 34366 ft 472 kts 62°
2026-05-06 19:22 59.46883 22.28502 33607 ft 477 kts 62°
2026-05-06 19:23 59.48566 22.34149 32867 ft 480 kts 61°
2026-05-06 19:23 59.50255 22.39826 32159 ft 482 kts 61°
2026-05-06 19:23 59.51947 22.45526 31431 ft 484 kts 60°
2026-05-06 19:23 59.53648 22.51266 30687 ft 486 kts 60°
2026-05-06 19:24 59.55338 22.57000 30162 ft 483 kts 60°
2026-05-06 19:24 59.57019 22.62719 29565 ft 479 kts 60°
2026-05-06 19:24 59.58680 22.68387 29015 ft 475 kts 60°
2026-05-06 19:24 59.60325 22.74012 28419 ft 471 kts 60°
2026-05-06 19:25 59.61953 22.79586 27901 ft 466 kts 61°
2026-05-06 19:25 59.63565 22.85119 27364 ft 462 kts 61°
2026-05-06 19:25 59.65157 22.90607 26830 ft 459 kts 61°
2026-05-06 19:25 59.66739 22.96068 26281 ft 456 kts 61°
2026-05-06 19:26 59.68311 23.01505 25725 ft 454 kts 61°
2026-05-06 19:26 59.69874 23.06905 25200 ft 451 kts 61°
2026-05-06 19:26 59.71421 23.12272 24660 ft 448 kts 61°
2026-05-06 19:26 59.72961 23.17630 24118 ft 446 kts 61°
2026-05-06 19:27 59.74492 23.22967 23581 ft 444 kts 61°
2026-05-06 19:27 59.76008 23.28262 22985 ft 440 kts 61°
2026-05-06 19:27 59.77510 23.33522 22447 ft 436 kts 60°
2026-05-06 19:27 59.78995 23.38732 21925 ft 431 kts 60°
2026-05-06 19:28 59.80462 23.43892 21403 ft 427 kts 60°
2026-05-06 19:28 59.81912 23.49004 20923 ft 422 kts 60°
2026-05-06 19:28 59.83346 23.54070 20387 ft 419 kts 60°
2026-05-06 19:28 59.84768 23.59102 19876 ft 415 kts 60°
2026-05-06 19:29 59.85702 23.62406 19657 ft 410 kts 59°
2026-05-06 19:29 59.87070 23.67269 19515 ft 396 kts 60°
2026-05-06 19:29 59.88807 23.73475 19324 ft 380 kts 60°
2026-05-06 19:29 59.90077 23.78018 19109 ft 372 kts 60°
2026-05-06 19:30 59.91296 23.82543 18774 ft 369 kts 64°
2026-05-06 19:30 59.92342 23.87189 18464 ft 366 kts 66°
2026-05-06 19:30 59.93015 23.90339 18225 ft 364 kts 66°
2026-05-06 19:30 59.93994 23.94964 17867 ft 361 kts 66°
2026-05-06 19:31 59.94966 23.99557 17413 ft 360 kts 66°
2026-05-06 19:31 59.95961 24.04259 17023 ft 379 kts 66°
2026-05-06 19:31 59.98010 24.13958 16324 ft 377 kts 66°
2026-05-06 19:32 59.99025 24.18780 15809 ft 375 kts 66°
2026-05-06 19:32 60.00030 24.23566 15352 ft 372 kts 66°
2026-05-06 19:32 60.01048 24.28298 14971 ft 367 kts 63°
2026-05-06 19:32 60.02343 24.32677 14908 ft 367 kts 54°
2026-05-06 19:33 60.03767 24.36891 14724 ft 362 kts 53°
2026-05-06 19:33 60.05202 24.41021 14250 ft 360 kts 53°
2026-05-06 19:33 60.06629 24.45075 13573 ft 350 kts 52°
2026-05-06 19:33 60.08022 24.49010 12599 ft 347 kts 52°
2026-05-06 19:34 60.09425 24.52958 12269 ft 345 kts 53°
2026-05-06 19:34 60.10807 24.56850 11806 ft 341 kts 53°
2026-05-06 19:34 60.12157 24.60654 11349 ft 338 kts 53°
2026-05-06 19:34 60.13510 24.64471 10900 ft 334 kts 53°
2026-05-06 19:35 60.14843 24.68234 10580 ft 328 kts 53°
2026-05-06 19:35 60.16168 24.71979 10424 ft 330 kts 53°
2026-05-06 19:35 60.17486 24.75712 10263 ft 328 kts 53°
2026-05-06 19:35 60.18794 24.79423 10089 ft 317 kts 53°
2026-05-06 19:36 60.20034 24.82951 9797 ft 302 kts 53°
2026-05-06 19:36 60.21228 24.86351 9296 ft 295 kts 53°
2026-05-06 19:36 60.22400 24.89688 8807 ft 288 kts 54°
2026-05-06 19:36 60.23543 24.92950 8338 ft 282 kts 54°
2026-05-06 19:37 60.24660 24.96142 7901 ft 278 kts 53°
2026-05-06 19:37 60.25772 24.99320 7536 ft 276 kts 54°
2026-05-06 19:37 60.26866 25.02453 7184 ft 272 kts 54°
2026-05-06 19:37 60.27949 25.05558 6899 ft 270 kts 54°
2026-05-06 19:38 60.29021 25.08638 6560 ft 266 kts 54°
2026-05-06 19:38 60.30080 25.11684 6191 ft 264 kts 55°
2026-05-06 19:38 60.31122 25.14685 5969 ft 257 kts 54°
2026-05-06 19:38 60.32127 25.17585 5817 ft 247 kts 54°
2026-05-06 19:39 60.33093 25.20377 5643 ft 239 kts 54°
2026-05-06 19:39 60.34037 25.23104 5426 ft 235 kts 54°
2026-05-06 19:39 60.34969 25.25802 5160 ft 233 kts 54°
2026-05-06 19:39 60.35889 25.28469 4891 ft 231 kts 54°
2026-05-06 19:40 60.36834 25.31084 4601 ft 230 kts 50°
2026-05-06 19:40 60.37881 25.33525 4320 ft 229 kts 47°
2026-05-06 19:40 60.38951 25.35909 4061 ft 229 kts 47°
2026-05-06 19:40 60.40022 25.38291 3816 ft 229 kts 47°
2026-05-06 19:41 60.41133 25.40535 3602 ft 225 kts 35°
2026-05-06 19:41 60.42582 25.41591 3429 ft 223 kts
2026-05-06 19:41 60.44067 25.40896 3247 ft 222 kts 330°
2026-05-06 19:41 60.45124 25.38676 3052 ft 222 kts 298°
2026-05-06 19:42 60.45517 25.35658 2941 ft 223 kts 276°
2026-05-06 19:42 60.45416 25.32501 2876 ft 226 kts 262°
2026-05-06 19:42 60.45104 25.29386 2844 ft 226 kts 260°
2026-05-06 19:42 60.44803 25.26310 2789 ft 218 kts 260°
2026-05-06 19:43 60.44425 25.23426 2717 ft 208 kts 249°
2026-05-06 19:43 60.43640 25.21069 2672 ft 196 kts 227°
2026-05-06 19:43 60.42727 25.19246 2625 ft 178 kts 225°
2026-05-06 19:43 60.41894 25.17463 2585 ft 172 kts 230°
2026-05-06 19:44 60.41096 25.15673 2531 ft 170 kts 229°
2026-05-06 19:44 60.40303 25.13902 2373 ft 168 kts 229°
2026-05-06 19:44 60.39529 25.12186 2137 ft 161 kts 229°
2026-05-06 19:44 60.38783 25.10538 1913 ft 158 kts 229°
2026-05-06 19:45 60.38042 25.08897 1704 ft 158 kts 229°
2026-05-06 19:45 60.37331 25.07326 1488 ft 144 kts 229°
2026-05-06 19:45 60.36688 25.05908 1280 ft 130 kts 229°
2026-05-06 19:45 60.36102 25.04612 1114 ft 123 kts 229°
2026-05-06 19:46 60.35514 25.03310 1125 ft 138 kts 229°
2026-05-06 19:46 60.34789 25.01696 1774 ft 173 kts 229°
2026-05-06 19:46 60.33937 24.99784 2073 ft 189 kts 229°
2026-05-06 19:46 60.33054 24.97785 2040 ft 191 kts 229°
2026-05-06 19:47 60.32169 24.95787 2001 ft 191 kts 229°
2026-05-06 19:47 60.31267 24.93756 1979 ft 202 kts 229°
2026-05-06 19:47 60.30250 24.91749 1973 ft 213 kts 214°
2026-05-06 19:47 60.28850 24.90901 2001 ft 213 kts 180°
2026-05-06 19:48 60.27425 24.91789 2006 ft 215 kts 149°
2026-05-06 19:48 60.26246 24.93573 2001 ft 216 kts 141°
2026-05-06 19:48 60.25099 24.95547 2003 ft 218 kts 140°
2026-05-06 19:48 60.23933 24.97575 2000 ft 225 kts 140°
2026-05-06 19:49 60.22745 24.99648 2003 ft 228 kts 140°
2026-05-06 19:49 60.21553 25.01760 1982 ft 228 kts 137°
2026-05-06 19:49 60.20719 25.04445 2003 ft 229 kts 106°
2026-05-06 19:49 60.20710 25.07602 1999 ft 228 kts 73°
2026-05-06 19:50 60.21445 25.10386 2000 ft 227 kts 53°
2026-05-06 19:50 60.22408 25.12911 1997 ft 228 kts 50°
2026-05-06 19:50 60.23449 25.15307 1997 ft 227 kts 40°
2026-05-06 19:50 60.24666 25.17343 1999 ft 227 kts 37°
2026-05-06 19:51 60.25931 25.19244 1996 ft 227 kts 34°
2026-05-06 19:51 60.27226 25.21060 1998 ft 227 kts 33°
2026-05-06 19:51 60.28534 25.22823 1997 ft 226 kts 32°
2026-05-06 19:51 60.29849 25.24574 1996 ft 226 kts 32°
2026-05-06 19:52 60.31164 25.26323 1997 ft 226 kts 32°
2026-05-06 19:52 60.32478 25.28081 1997 ft 227 kts 32°
2026-05-06 19:52 60.33788 25.29849 1996 ft 227 kts 33°
2026-05-06 19:52 60.35098 25.31624 1986 ft 226 kts 33°
2026-05-06 19:53 60.36403 25.33402 1987 ft 226 kts 33°
2026-05-06 19:53 60.37707 25.35182 1966 ft 226 kts 33°
2026-05-06 19:53 60.39014 25.36961 1987 ft 226 kts 32°
2026-05-06 19:53 60.40461 25.38089 1991 ft 223 kts
2026-05-06 19:54 60.41939 25.37523 1987 ft 214 kts 333°
2026-05-06 19:54 60.43112 25.35908 1991 ft 200 kts 322°
2026-05-06 19:54 60.44151 25.34182 1990 ft 187 kts 320°
2026-05-06 19:54 60.45087 25.32470 1957 ft 179 kts 310°
2026-05-06 19:55 60.45494 25.30149 2024 ft 178 kts 273°
2026-05-06 19:55 60.45374 25.27645 2001 ft 180 kts 262°
2026-05-06 19:55 60.45111 25.25147 1992 ft 183 kts 254°
2026-05-06 19:55 60.44449 25.22938 1993 ft 186 kts 229°
2026-05-06 19:56 60.43546 25.21071 1994 ft 185 kts 227°
2026-05-06 19:56 60.42683 25.19199 1996 ft 174 kts 229°
2026-05-06 19:56 60.41907 25.17473 2001 ft 161 kts 229°
2026-05-06 19:56 60.41160 25.15807 2001 ft 159 kts 229°
2026-05-06 19:57 60.40413 25.14145 2000 ft 160 kts 229°
2026-05-06 19:57 60.39666 25.12489 1999 ft 160 kts 229°
2026-05-06 19:57 60.38916 25.10828 1948 ft 160 kts 229°
2026-05-06 19:57 60.38170 25.09180 1757 ft 158 kts 229°
2026-05-06 19:58 60.37454 25.07597 1520 ft 148 kts 229°
2026-05-06 19:58 60.36780 25.06108 1322 ft 140 kts 229°
2026-05-06 19:58 60.36144 25.04702 1124 ft 131 kts 229°
2026-05-06 19:58 60.35547 25.03386 948 ft 123 kts 229°
2026-05-06 19:59 60.34975 25.02122 765 ft 121 kts 229°
2026-05-06 19:59 60.34409 25.00870 601 ft 121 kts 228°
2026-05-06 19:59 60.33842 24.99617 409 ft 120 kts 227°
2026-05-06 19:59 60.33281 24.98372 263 ft 119 kts 228°
2026-05-06 20:00 60.32731 24.97150 178 ft 110 kts 226°
2026-05-06 20:00 60.32296 24.96204 181 ft 72 kts 227°
2026-05-06 20:00 60.32063 24.95685 177 ft 34 kts 228°
2026-05-06 20:00 60.31929 24.95427 177 ft 19 kts 218°
2026-05-06 20:01 60.31829 24.95295 178 ft 17 kts 207°
2026-05-06 20:01 60.31722 24.95215 177 ft 12 kts 198°
2026-05-06 20:01 60.31657 24.95192 175 ft 5 kts 171°
2026-05-06 20:01 60.31636 24.95206 175 ft 6 kts 162°
2026-05-06 20:02 60.31589 24.95189 174 ft 9 kts 211°
2026-05-06 20:02 60.31526 24.95143 173 ft 12 kts 171°
2026-05-06 20:02 60.31465 24.95238 171 ft 10 kts 137°
2026-05-06 20:02 60.31454 24.95337 171 ft 7 kts 58°
2026-05-06 20:03 60.31463 24.95419 171 ft 6 kts 109°
2026-05-06 20:03 60.31448 24.95451 171 ft 1 kts 137°
2026-05-06 20:03 60.31434 24.95476 171 ft 4 kts 137°
2026-05-06 20:03 60.31421 24.95500 171 ft 0 kts 137°